[[{"header":{"parameterUnit":"m.s-1","parameterCategory":1,"la1":30.2992,"la2":30.254,"lo1":-89.0895,"lo2":-89.0443,"dy":0.0025,"dx":0.0025,"nx":19,"ny":19,"refTime":"2026-04-25T03:00:00:Z","depth":0,"parameterNumber":2,"parameterNumberName":"U-component_of_WINDS"},"data":[0,0,0,2.1832,2.1834,2.1906,2.1906,2.2032,2.2033,0,0,0,0,0,0,0,0,0,0,0,2.1829,2.1831,2.1832,2.1834,2.1906,2.1906,2.2032,2.2033,0,0,0,0,0,0,0,0,0,0,0,2.1828,2.183,2.1832,2.1834,2.1906,2.1906,2.2031,2.1965,0,0,0,0,0,0,0,0,0,0,2.1889,2.1905,2.183,2.1832,2.1835,2.1906,2.1906,2.1962,2.1969,2.2013,0,2.2055,0,2.2046,2.2044,2.2044,0,0,0,2.182,2.1899,2.1901,2.1832,2.1836,2.1906,2.187,2.1966,2.1974,2.2023,2.2057,2.206,2.2048,2.2045,2.2045,2.2337,2.2339,0,0,2.1816,2.1853,2.1895,2.1908,2.1897,2.1868,2.1872,2.197,2.201,2.2057,2.2063,2.205,2.2046,2.2047,2.2335,2.2338,0,0,0,2.1814,2.1851,2.185,2.1903,2.1914,2.187,2.1875,2.2005,2.2002,2.2064,2.2052,2.2047,2.2048,2.2333,2.2336,2.247,0,0,0,2.1811,2.1849,2.1849,2.1872,2.1913,2.196,2.1909,2.1995,2.2005,2.2051,2.2047,2.205,2.2331,2.2335,2.2462,2.2529,0,0,0,2.1818,2.1849,2.1866,2.1873,2.1906,2.1958,2.196,2.1996,2.1999,2.2044,2.205,2.2329,2.2334,2.2454,2.2516,2.2616,0,0,0,2.1836,2.1985,2.1869,2.2031,2.1905,2.204,2.1958,2.2057,2.2112,2.2047,2.2331,2.2336,2.2452,2.2508,2.2608,2.2708,2.2752,0,0,2.2045,2.2012,2.2104,2.2002,2.2166,2.2026,2.221,2.2226,2.2198,2.2293,2.23,2.2465,2.2515,2.2614,2.2987,2.3023,0,0,0,2.2182,2.2249,2.2284,2.2338,2.2353,2.2372,2.2356,2.2363,2.2441,2.2254,2.2526,2.2555,2.2612,2.2658,2.2688,2.2735,2.2359,2.2358,2.2358,2.2531,2.2485,2.2634,2.2597,2.265,2.2632,2.2671,2.2676,2.2616,2.2681,2.2709,2.2941,2.2996,2.3018,2.3068,2.2757,2.2758,2.2758,2.2758,2.2832,2.292,2.2834,2.2948,2.29,2.2996,2.2984,2.2938,2.3021,2.2916,2.2964,2.2855,2.3059,2.31,2.2768,2.2766,2.2765,2.2764,2.2764,2.3056,2.309,2.3094,2.3165,2.3226,2.3184,2.3267,2.3219,2.3175,2.3223,2.3248,2.3245,2.3238,2.3237,2.3238,2.3239,2.324,2.324,2.3241,2.3288,2.3287,2.3362,2.339,2.3418,2.3448,2.3431,2.3457,2.3474,2.3433,2.3433,2.3367,2.3087,2.3018,2.3253,2.3251,2.3249,2.3248,2.3247,2.3613,2.3531,2.3648,2.3676,2.3704,2.3768,2.3705,2.3762,2.3777,2.382,2.3742,2.3543,2.3506,2.3482,2.3425,2.3751,2.3751,2.3751,2.3751,2.3803,2.3779,2.3887,2.3934,2.3975,2.393,2.4064,2.4051,2.4026,2.4032,2.3977,2.3897,2.3874,2.3851,2.3819,2.3765,2.4171,2.4171,2.4171,2.4001,2.3978,2.4101,2.4073,2.4092,2.4109,2.4233,2.4292,2.4246,2.4187,2.4036,2.4019,2.3888,2.3848,2.3788,2.3739,2.3638,0,0]},{"header":{"parameterUnit":"m.s-1","parameterCategory":1,"la1":30.2992,"la2":30.254,"lo1":-89.0895,"lo2":-89.0443,"dy":0.0025,"dx":0.0025,"nx":19,"ny":19,"refTime":"2026-04-25T03:00:00:Z","depth":0,"parameterNumber":3,"parameterNumberName":"V-component_of_WINDS"},"data":[0,0,0,0.6459,0.6462,0.6614,0.6615,0.6808,0.681,0,0,0,0,0,0,0,0,0,0,0,0.6412,0.6413,0.6459,0.6463,0.6614,0.6615,0.6808,0.681,0,0,0,0,0,0,0,0,0,0,0,0.6412,0.6413,0.6415,0.6463,0.6614,0.6615,0.6807,0.6694,0,0,0,0,0,0,0,0,0,0,0.6547,0.6501,0.6413,0.6415,0.6464,0.6614,0.6615,0.6688,0.6701,0.6738,0,0.6769,0,0.6792,0.6822,0.6823,0,0,0,0.6465,0.649,0.6533,0.6415,0.6466,0.6614,0.6547,0.6695,0.6709,0.6755,0.6772,0.6779,0.6795,0.6824,0.6824,0.7028,0.7029,0,0,0.6457,0.6439,0.6523,0.6542,0.6516,0.6542,0.6551,0.6704,0.6722,0.6773,0.6784,0.6799,0.6825,0.6826,0.7027,0.7028,0,0,0,0.6431,0.6433,0.6472,0.6534,0.6561,0.6546,0.6557,0.6716,0.673,0.6786,0.6801,0.6826,0.6828,0.7027,0.7028,0.7052,0,0,0,0.6426,0.6418,0.6468,0.6459,0.6558,0.664,0.6565,0.6719,0.6737,0.68,0.6826,0.683,0.7026,0.7027,0.705,0.7068,0,0,0,0.6403,0.6415,0.6436,0.6457,0.6522,0.6638,0.6661,0.6723,0.6746,0.6823,0.6831,0.7025,0.7027,0.7047,0.7064,0.7118,0,0,0,0.6374,0.6457,0.6436,0.6534,0.652,0.665,0.666,0.6758,0.6827,0.6827,0.7026,0.7028,0.7047,0.7062,0.7115,0.7161,0.7177,0,0,0.6469,0.6468,0.6527,0.6513,0.6641,0.6628,0.6762,0.6843,0.6868,0.6974,0.6979,0.7051,0.7064,0.7117,0.7272,0.7285,0,0,0,0.6551,0.6593,0.6631,0.6695,0.6756,0.6812,0.6874,0.6904,0.6994,0.6918,0.7083,0.7092,0.7124,0.7147,0.7158,0.7187,0.7037,0.7036,0.7036,0.6662,0.6686,0.6786,0.6828,0.689,0.6951,0.7004,0.7056,0.7064,0.7102,0.7135,0.7226,0.7252,0.7261,0.7291,0.7159,0.7159,0.7159,0.7159,0.6805,0.687,0.6876,0.6975,0.7001,0.7085,0.7147,0.715,0.7233,0.7204,0.7233,0.7201,0.7274,0.7302,0.7161,0.7161,0.7161,0.7161,0.716,0.6883,0.6918,0.6951,0.7044,0.7113,0.7153,0.7232,0.7253,0.7273,0.7302,0.734,0.734,0.7344,0.7318,0.7318,0.7318,0.7319,0.7319,0.7319,0.6952,0.6988,0.7051,0.7122,0.7165,0.7224,0.7284,0.7328,0.7382,0.7391,0.7392,0.7397,0.7275,0.7245,0.7324,0.7323,0.7323,0.7322,0.7322,0.7094,0.7064,0.7162,0.7204,0.7289,0.7357,0.738,0.7466,0.7505,0.7544,0.7542,0.7447,0.7449,0.744,0.7416,0.7534,0.7534,0.7534,0.7534,0.7162,0.7162,0.7267,0.7333,0.7401,0.7431,0.7543,0.759,0.7635,0.7661,0.7646,0.7614,0.7604,0.7612,0.76,0.7578,0.7735,0.7735,0.7735,0.7251,0.7259,0.735,0.739,0.7457,0.7514,0.762,0.7698,0.7743,0.7744,0.7682,0.7674,0.7623,0.7605,0.7609,0.7589,0.7549,0,0]}]]